Content
SEND FEEDBACK

Daily
Averages
Monthly
Summary
United Kingdom

LONDON, ENGLAND


Home > Europe > United Kingdom > England
Elevation: 203 feet     Latitude: 51 09N     Longitude: 000 11W

WEATHER
 
SELECT A DAY
Number of Records: 299,813;   Date Range: 7/1/96 - 12/27/14
 
SHARE

PRINT THIS DATA

[ ← Previous Day ]
WEATHER ALMANAC - JANUARY 20, 2014
[ Next Day → ]
[ °C ]   °F
Weather ElementAverageHighLow
Temperature37.7 °F48.2 °F (1:50 pm)28.4 °F (7:50 am)
Dewpoint35.6 °F42.8 °F (2:20 pm)28.4 °F (3:20 am)
Humidity92.4 %100 % (12:50 am)76 % (1:50 pm)
Barometer29.76 in29.86 in (6:50 pm)29.62 in (12:50 am)
Wind Speed1.6 mph5.8 mph (1:20 am)
Weather ElementAverage
Visibility4.2 mi
Wind DirectionNNE (31.7 °)

Weather ElementTotal
Precipitation---
Heating Degree Days26.7 (Base 65)
Averaged from 47 records on January 20, 2014
WEATHER CONDITIONS BREAKOUT
WIND DIRECTION BREAKOUT
WEATHER BY HOUR - JANUARY 20, 2014
[ °C ]   °F
Local TimeTemperatureDewpointHumidityBarometerVisibilityWind DirectionWind SpeedGust SpeedPrecipitationEventsConditions
12:50 AM32.0 °F32.0 °F100 %29.62 in4.3 miCalm
1:20 AM32.0 °F30.2 °F93 %29.62 in4.3 miEast (80°)5.8 mph
1:50 AM30.2 °F30.2 °F100 %29.62 in4.3 miEast (90°)4.6 mph
2:20 AM32.0 °F30.2 °F93 %29.62 in4.3 miEast (80°)3.5 mph
2:50 AM30.2 °F30.2 °F100 %29.62 in4.3 miEast (80°)4.6 mph
3:20 AM30.2 °F28.4 °F93 %29.65 in5.0 miVariable2.3 mph
3:50 AM30.2 °F30.2 °F100 %29.65 in5.0 miCalm
4:20 AM30.2 °F30.2 °F100 %29.65 in4.3 miEast (80°)4.6 mph
4:50 AM30.2 °F28.4 °F93 %29.65 in4.3 miEast (80°)3.5 mph
5:20 AM30.2 °F28.4 °F93 %29.65 in3.7 miCalm
5:50 AM30.2 °F30.2 °F100 %29.68 in3.7 miCalm
6:20 AM30.2 °F30.2 °F100 %29.68 in3.1 miVariable2.3 mphMist
6:50 AM30.2 °F30.2 °F100 %29.68 in3.1 miCalmMist
7:20 AM30.2 °F28.4 °F93 %29.71 inCalmMist
7:50 AM28.4 °F28.4 °F100 %29.71 in3.7 miEast (100°)3.5 mphFogFog
8:20 AM30.2 °F30.2 °F100 %29.74 in4.3 miCalmFogFog
8:50 AM30.2 °F30.2 °F100 %29.74 in3.7 miCalmFogFog
9:20 AM32.0 °F30.2 °F93 %29.74 in3.1 miEast (100°)4.6 mphMist
9:50 AM33.8 °F32.0 °F93 %29.77 in3.1 miCalmPartly Cloudy
10:20 AM33.8 °F33.8 °F100 %29.77 in3.1 miWSW (240°)2.3 mphPartly Cloudy
10:50 AM35.6 °F33.8 °F93 %29.77 in3.1 miVariable2.3 mphHaze
11:20 AM37.4 °F35.6 °F93 %29.77 in3.7 miCalmPartly Cloudy
11:50 AM41.0 °F37.4 °F87 %29.77 in4.3 miVariable3.5 mph
12:20 PM42.8 °F37.4 °F81 %29.77 in5.6 miCalm
12:50 PM44.6 °F39.2 °F81 %29.77 in6.2 miCalmPartly Cloudy
1:20 PM44.6 °F41.0 °F87 %29.77 in5.6 miCalmScattered Clouds
1:50 PM48.2 °F41.0 °F76 %29.77 in6.2 miCalmPartly Cloudy
2:20 PM48.2 °F42.8 °F82 %29.77 in6.2 miCalmPartly Cloudy
2:50 PM48.2 °F41.0 °F76 %29.80 in6.2 miVariable3.5 mphScattered Clouds
3:20 PM48.2 °F41.0 °F76 %29.80 in6.2 miVariable2.3 mphScattered Clouds
3:50 PM48.2 °F41.0 °F76 %29.80 in6.2 miVariable3.5 mphScattered Clouds
4:20 PM46.4 °F41.0 °F81 %29.83 in6.2 miVariable2.3 mphMostly Cloudy
4:50 PM46.4 °F42.8 °F87 %29.83 in5.6 miNNW (330°)4.6 mphRainLight Rain
5:20 PM46.4 °F41.0 °F81 %29.83 in6.2 miVariable3.5 mphRainLight Rain
5:50 PM44.6 °F42.8 °F93 %29.83 in6.2 miVariable2.3 mphMostly Cloudy
6:20 PM42.8 °F41.0 °F93 %29.83 in3.7 miCalmScattered Clouds
6:50 PM42.8 °F41.0 °F93 %29.86 in5.0 miVariable2.3 mphMostly Cloudy
7:20 PM42.8 °F41.0 °F93 %29.86 in5.0 miCalmScattered Clouds
7:50 PM42.8 °F41.0 °F93 %29.86 in5.0 miSW (230°)2.3 mphMostly Cloudy
8:20 PM42.8 °F41.0 °F93 %29.86 in4.3 miCalmScattered Clouds
8:50 PM41.0 °F41.0 °F100 %29.86 in3.1 miCalmHaze
9:20 PM41.0 °F41.0 °F100 %29.86 in3.1 miCalmMist
9:50 PM39.2 °F37.4 °F93 %29.86 in2.5 miVariable2.3 mphMist
10:20 PM37.4 °F37.4 °F100 %29.86 in1.6 miCalmScattered Clouds
10:50 PM35.6 °F35.6 °F100 %29.86 in0.4 miCalmFogFog
11:20 PM37.4 °F35.6 °F93 %29.86 in0.5 miCalmFogFog
11:50 PM37.4 °F37.4 °F100 %29.86 in0.5 miCalmFogFog
Hourly data recorded from EGKK, located miles away from London, England







STORIES FROM OUR PARTNERS